"Pseudo-MPEC" for P10LfOz

Created 2019 Jan 12 1:18:27 UT using Find_Orb

Click here for an explanation of pseudo-MPECs

 
 Astrometry: 
     P10LfOz  C2019 01 09tDm.erEGFj1u*gDcG0DT*R13v^p2]EVPSv#SCIw/Astrometryx(F51
     P10LfOz  C2019 01 09Aa%m6mredacted;iN=U1b2;pbI_AFn?(xbMvHhq/mQW]DebVPJBlF51
     P10LfOz  C2019 01 09D8K6g.f6v^yjiV'4WmPgCT/5Omr\,pNWw?y_+5[C4KgE-!+iw_RgF51
     P10LfOz KC2019 01 111d^b)]Ghr)fa.S,;.bo9Qmx]Zg(G(=N9'20p#clickSB,s)oLi04H21
     P10LfOz KC2019 01 11?-F!.N?\BFnx1!ab7hereDW=4AQeG$N]A[*wC2%TN,'F.E-J\,'yH21
     P10LfOz KC2019 01 11;xF74*4W*7KF?WNe?sMi0YJ/Ss:lwbuHy/R3AI=Xt=w+k%?iHOs8H21
     P10LfOz KC2019 01 11dW=(dP#3Gfor5-fld(q)r@2t9$*_1`\@$TQA6;K9NLN5j:(Twy7o291
     P10LfOz KC2019 01 11%9gaYk0fRL7lTctj.irbfKT5y#Xe+:ED[,W'HBmUH_!ul0dM*D'?291
     P10LfOz KC2019 01 11aBMnTpBKjaLFcmexplanationN@e!Kc(j`fv#0hSpf-$])ZbMAis291

Station data:
(291) LPL/Spacewatch II  (N31.961669 W111.599905)  US/Arizona.  Observers J.
   V. Scotti, R. S. McMillan. 1.8-m f/2.7 reflector + CCD.
(F51) Pan-STARRS 1, Haleakala  (N20.707235 W156.255910)  US/Hawaii.
   Observers N. Primak, A. Schultz, S. Watters, J. Thiel, T. Goggia. Measurer
   PS1 Science Consortium. 1.8-m Ritchey-Chrétien + CCD.
(H21) Astronomical Research Observatory, Westfield  (N39.483057 W87.968270)
   US/Illinois. 0.76-m f/3.0 astrograph + CCD.

Orbital elements:  P10LfOz
   Perihelion 2017 Sep 29.719512 +/- 722 TT = 17:16:05 (JD 2458026.219512)
Epoch 2019 Jan 11.0 TT = JDT 2458494.5   Earth MOID: 0.7135   AutoNEOCP
M 178.02213539 +/- 270              (J2000 ecliptic)
n   0.38016133 +/- 0.00663          Peri.  242.99034 +/- 20
a   1.88722676 +/- 0.0219           Node    57.32633 +/- 2.1
e   0.1233055 +/- 0.0309            Incl.   23.78595 +/- 0.6
P   2.59/946.95d           H 18.9   G  0.15   U 10.0  
q 1.65452118 +/- 0.0727    Q 2.11993234 +/- 0.0433
From 9 observations 2019 Jan. 9-11; mean residual 0".12
Residuals in arcseconds: 
190109 F51  .17+  .19-    190111 H21  .12+  .07+    190111 291  .05-  .03+    
190109 F51  .09+  .11+    190111 H21  .06-  .03+    190111 291  .10+  .14+    
190109 F51  .26-  .08+    190111 H21  .07-  .14-    190111 291  .03-  .13-    

Ephemerides (geocentric):
Date (UTC) HH   RA              Dec         delta   r     elong  mag " sig PA
---- -- -- --  -------------   -----------  ------ ------ -----  --- ---- ---
2019 01 12 01  09 13 14.829   +54 54 57.41  1.2579 2.1199 141.8 21.9 .633  15
2019 01 12 02  09 13 11.242   +54 55 36.10  1.2579 2.1199 141.8 21.9 .685  16
2019 01 12 03  09 13 07.649   +54 56 14.74  1.2578 2.1199 141.8 21.9 .739  16
2019 01 12 04  09 13 04.050   +54 56 53.35  1.2578 2.1199 141.8 21.9 .794  16
2019 01 12 05  09 13 00.446   +54 57 31.91  1.2577 2.1199 141.8 21.9 .850  16
2019 01 12 06  09 12 56.836   +54 58 10.44  1.2577 2.1199 141.8 21.9 .908  16
2019 01 12 07  09 12 53.219   +54 58 48.92  1.2576 2.1199 141.8 21.9 .967  16
2019 01 12 08  09 12 49.598   +54 59 27.36  1.2576 2.1199 141.9 21.9 1.03  17
2019 01 12 09  09 12 45.970   +55 00 05.76  1.2575 2.1199 141.9 21.9 1.09  17
2019 01 12 10  09 12 42.337   +55 00 44.12  1.2575 2.1199 141.9 21.9 1.15  17
2019 01 12 11  09 12 38.698   +55 01 22.43  1.2574 2.1199 141.9 21.9 1.22  17
2019 01 12 12  09 12 35.053   +55 02 00.71  1.2574 2.1199 141.9 21.9 1.29  17
2019 01 12 13  09 12 31.402   +55 02 38.94  1.2573 2.1199 141.9 21.9 1.35  17
2019 01 12 14  09 12 27.746   +55 03 17.13  1.2573 2.1199 141.9 21.9 1.42  17
2019 01 12 15  09 12 24.084   +55 03 55.28  1.2572 2.1199 141.9 21.9 1.49  17
2019 01 12 16  09 12 20.417   +55 04 33.39  1.2572 2.1199 141.9 21.9 1.56  17
2019 01 12 17  09 12 16.744   +55 05 11.45  1.2571 2.1199 141.9 21.9 1.64  17
2019 01 12 18  09 12 13.065   +55 05 49.48  1.2571 2.1199 141.9 21.9 1.71  17
2019 01 12 19  09 12 09.380   +55 06 27.46  1.2570 2.1199 141.9 21.9 1.79  17
2019 01 12 20  09 12 05.690   +55 07 05.39  1.2570 2.1199 141.9 21.9 1.87  17
2019 01 12 21  09 12 01.994   +55 07 43.29  1.2570 2.1199 141.9 21.9 1.95  17
2019 01 12 22  09 11 58.292   +55 08 21.14  1.2569 2.1199 141.9 21.9 2.03  17
2019 01 12 23  09 11 54.585   +55 08 58.95  1.2569 2.1199 142.0 21.9 2.11  17
2019 01 13 00  09 11 50.872   +55 09 36.72  1.2568 2.1199 142.0 21.9 2.19  17
2019 01 13 01  09 11 47.154   +55 10 14.44  1.2568 2.1199 142.0 21.9 2.28  17
2019 01 13 02  09 11 43.430   +55 10 52.12  1.2567 2.1199 142.0 21.9 2.36  17
2019 01 13 03  09 11 39.700   +55 11 29.76  1.2567 2.1199 142.0 21.9 2.45  17
2019 01 13 04  09 11 35.965   +55 12 07.36  1.2567 2.1199 142.0 21.9 2.54  17
2019 01 13 05  09 11 32.224   +55 12 44.91  1.2566 2.1199 142.0 21.9 2.63  17
2019 01 13 06  09 11 28.477   +55 13 22.42  1.2566 2.1199 142.0 21.9 2.72  17
2019 01 13 07  09 11 24.725   +55 13 59.88  1.2565 2.1199 142.0 21.9 2.82  17
2019 01 13 08  09 11 20.968   +55 14 37.30  1.2565 2.1199 142.0 21.9 2.91  17
2019 01 13 09  09 11 17.204   +55 15 14.68  1.2564 2.1199 142.0 21.9 3.01  17
2019 01 13 10  09 11 13.436   +55 15 52.01  1.2564 2.1199 142.0 21.9 3.11  17
2019 01 13 11  09 11 09.661   +55 16 29.30  1.2564 2.1199 142.0 21.9 3.21  17
2019 01 13 12  09 11 05.882   +55 17 06.55  1.2563 2.1199 142.0 21.9 3.31  17
2019 01 13 13  09 11 02.096   +55 17 43.75  1.2563 2.1199 142.0 21.9 3.41  17
2019 01 13 14  09 10 58.305   +55 18 20.91  1.2563 2.1199 142.0 21.9 3.51  17
2019 01 13 15  09 10 54.509   +55 18 58.03  1.2562 2.1199 142.1 21.9 3.62  17
2019 01 13 16  09 10 50.707   +55 19 35.10  1.2562 2.1199 142.1 21.9 3.72  17
2019 01 13 17  09 10 46.900   +55 20 12.12  1.2561 2.1199 142.1 21.9 3.83  17
2019 01 13 18  09 10 43.087   +55 20 49.10  1.2561 2.1199 142.1 21.9 3.94  17
2019 01 13 19  09 10 39.268   +55 21 26.04  1.2561 2.1199 142.1 21.9 4.05  17
2019 01 13 20  09 10 35.444   +55 22 02.93  1.2560 2.1199 142.1 21.9 4.16  17
2019 01 13 21  09 10 31.615   +55 22 39.78  1.2560 2.1199 142.1 21.9 4.28  17
2019 01 13 22  09 10 27.780   +55 23 16.58  1.2560 2.1199 142.1 21.9 4.39  17
2019 01 13 23  09 10 23.940   +55 23 53.34  1.2559 2.1199 142.1 21.9 4.51  17
2019 01 14 00  09 10 20.095   +55 24 30.05  1.2559 2.1199 142.1 21.9 4.63  17